Home   Weather   Hommelvik   Past weeks

Flag for Norway Past Weather in Hommelvik, Norway — Yesterday and Last 2 Weeks

Now
27 °F

Scattered clouds.


Feels Like: 21 °F
Forecast: 18 / 30 °F
Wind: 5 mph from East

Location: Trondheim / Vaernes

Current Time: Dec 11, 2016 at 10:54:11 am

Latest Report: Dec 11, 2016 at 10:20 am


Visibility: N/A

Pressure: 29.80 "Hg

Humidity: 86%

Dew Point: 23 °F

Location of HommelvikLocation

Past Weather in Hommelvik — Graph

°F

Hommelvik Temperature Yesterday

Maximum temperature yesterday: 34 °F (at 8:50 am)
Minimum temperature yesterday: 30 °F (at 11:50 pm)
Average temperature yesterday: 32 °F

High & Low Weather Summary for the Past Weeks

 TemperatureHumidityPressure
High48 °F (Dec 9, 1:50 am)100% (Nov 27, 10:50 pm)30.42 "Hg (Nov 27, 10:50 pm)
Low25 °F (Nov 28, 1:50 am)57% (Nov 29, 2:50 pm)29.33 "Hg (Dec 8, 5:50 am)
Average36 °F89%29.88 "Hg
* Reported Nov 26 9:50 am — Dec 11 9:20 am, Hommelvik, Weather by CustomWeather, © 2016

Note: Actual official high and low records may vary slightly from our data, if they occured in-between our weather recording intervals... More about our weather records

Advertising

Hommelvik Weather History for the Previous 24 Hours

Scroll right to see more
 ConditionsComfort  
Time TempWeatherWind HumidityBarometerVisibility
9:20 am
Sun, Dec 11
27 °FPassing clouds.1 mph86%29.77 "HgN/A
8:50 am27 °FPassing clouds.3 mph86%29.74 "HgN/A
8:20 am28 °FPassing clouds.5 mph74%29.74 "HgN/A
7:50 am28 °FPassing clouds.7 mph74%29.71 "HgN/A
7:20 am28 °FPartly cloudy.7 mph80%29.71 "HgN/A
6:50 am30 °FPartly cloudy.7 mph75%29.71 "HgN/A
6:20 am30 °FPassing clouds.No wind75%29.68 "HgN/A
5:20 am30 °FPassing clouds.1 mph80%29.68 "HgN/A
4:50 am30 °FOvercast.3 mph80%29.68 "HgN/A
3:50 am30 °FOvercast.3 mph86%29.68 "HgN/A
2:50 am30 °FPartly cloudy.2 mph86%29.68 "HgN/A
1:50 am30 °FMostly cloudy.5 mph86%29.68 "HgN/A
12:50 am30 °FLight snow. Ice fog.7 mph93%29.68 "Hg2 mi
11:50 pm
Sat, Dec 10
30 °FLight snow. Ice fog.5 mph93%29.68 "Hg1 mi
11:20 pm32 °FLight snow. Dense fog.6 mph93%29.68 "Hg2 mi
10:50 pm32 °FLight snow. Dense fog.7 mph93%29.68 "Hg1 mi
10:20 pm32 °FLight snow. Dense fog.6 mph93%29.68 "Hg1 mi
9:50 pm32 °FLight snow. Dense fog.6 mph93%29.68 "Hg1 mi
9:20 pm32 °FLight snow. Dense fog.7 mph93%29.68 "Hg1 mi
8:50 pm32 °FLight snow. Dense fog.6 mph93%29.68 "Hg1 mi
8:20 pm32 °FLight snow. Dense fog.7 mph93%29.68 "Hg1 mi
7:50 pm32 °FLight snow. Fog.6 mph93%29.68 "Hg2 mi
7:20 pm32 °FLight snow. Dense fog.8 mph93%29.68 "Hg1 mi
6:50 pm32 °FLight snow. Dense fog.9 mph93%29.68 "Hg1 mi
6:20 pm32 °FLight snow. Dense fog.8 mph93%29.68 "Hg1 mi
5:50 pm32 °FLight snow. Dense fog.9 mph93%29.68 "Hg2 mi
5:20 pm32 °FLight snow. Fog.9 mph93%29.68 "Hg3 mi
4:50 pm32 °FLight snow. Passing clouds.8 mph87%29.68 "Hg3 mi
4:20 pm32 °FLight snow. Partly cloudy.8 mph87%29.68 "Hg4 mi
3:50 pm32 °FLight snow. Fog.12 mph87%29.68 "Hg2 mi
2:50 pm32 °FLight snow. Passing clouds.10 mph87%29.68 "Hg4 mi
2:20 pm32 °FLight snow. Partly sunny.10 mph87%29.68 "Hg4 mi
1:50 pm32 °FLight snow. Partly sunny.9 mph87%29.68 "Hg4 mi
1:20 pm34 °FLight snow. Overcast.9 mph81%29.71 "Hg3 mi
12:50 pm34 °FLight rain. Partly sunny.10 mph75%29.68 "HgN/A
12:20 pm34 °FScattered showers. Overcast.9 mph75%29.71 "HgN/A
11:50 am34 °FScattered showers. Scattered clouds.10 mph75%29.71 "HgN/A
11:20 am34 °FScattered showers. Passing clouds.9 mph75%29.71 "HgN/A
10:50 am34 °FScattered showers. Partly sunny.8 mph75%29.71 "HgN/A
10:20 am34 °FScattered showers. Partly sunny.8 mph75%29.71 "HgN/A
Weather by CustomWeather, © 2016

See weather overviewHow to use our weather pages